Location: Eaton Estates
(41.3089°N, 82.0057°W)
Time: 08:10:23
(UTC+00:00)

Cosmos 1812 Rocket - Pass Details

Date: 17 June 2021
Orbit: 606 x 631 km, 82.5° (Epoch: 27 July)

Event Time Altitude Azimuth Distance (km) Brightness Sun altitude
Rises 05:50:35 0° 350° (N) 2,876 8.2 -25.1°
Reaches altitude 10° 05:52:48 10° 350° (N) 1,969 7.1 -25.1°
Enters shadow 05:56:48 72° 319° (NW) 645 3.6 -25.0°
